SV7RNH Weather Reports


Display with metric or nautical units.
time (UTC)temp
F
wind
direction
speed
MPH
gust
MPH
rain 1hr
in
rain 24hr
in
rain mn
in
humidity
%
barometer
mb
20260510120003 86 190 3.0 8.0 0.00 0.00 0.00 25 1015.9
20260510115504 86 215 2.0 8.0 0.00 0.00 0.00 26 1016.0
20260510115004 86 0 0.0 6.0 0.00 0.00 0.00 26 1016.2
20260510114504 87 265 2.0 6.0 0.00 0.00 0.00 26 1016.2
20260510114003 87 258 2.0 7.0 0.00 0.00 0.00 25 1016.2
20260510113503 87 197 2.0 7.0 0.00 0.00 0.00 26 1016.2
20260510113003 87 164 2.0 6.0 0.00 0.00 0.00 26 1016.3
20260510112504 87 207 2.0 6.0 0.00 0.00 0.00 24 1016.2
20260510112003 85 226 2.0 6.0 0.00 0.00 0.00 28 1016.5
20260510111503 85 239 2.0 6.0 0.00 0.00 0.00 28 1016.5
20260510111003 86 238 2.0 6.0 0.00 0.00 0.00 28 1016.3
20260510110504 86 218 2.0 8.0 0.00 0.00 0.00 29 1016.4
20260510110004 85 220 2.0 8.0 0.00 0.00 0.00 26 1016.5
20260510105503 85 241 2.0 8.0 0.00 0.00 0.00 26 1016.5
20260510105004 85 237 4.0 8.0 0.00 0.00 0.00 26 1016.6
20260510104504 85 225 2.0 6.0 0.00 0.00 0.00 25 1016.6
20260510104003 85 230 1.0 7.0 0.00 0.00 0.00 28 1016.6
20260510103503 84 231 1.0 7.0 0.00 0.00 0.00 28 1016.7
20260510103003 83 235 2.0 7.0 0.00 0.00 0.00 29 1016.9
20260510102504 84 278 1.0 5.0 0.00 0.00 0.00 29 1016.8
20260510102003 83 249 2.0 5.0 0.00 0.00 0.00 28 1016.9
20260510101503 84 230 1.0 4.0 0.00 0.00 0.00 29 1016.9
20260510101003 84 0 0.0 4.0 0.00 0.00 0.00 29 1016.9
20260510100504 83 0 0.0 4.0 0.00 0.00 0.00 30 1016.9
20260510100004 84 229 2.0 8.0 0.00 0.00 0.00 28 1017.0
20260510095503 83 234 2.0 8.0 0.00 0.00 0.00 30 1016.9
20260510095003 83 251 1.0 4.0 0.00 0.00 0.00 30 1016.8
20260510094504 83 297 2.0 4.0 0.00 0.00 0.00 29 1017.0
20260510094004 84 0 0.0 2.0 0.00 0.00 0.00 30 1017.1
20260510093503 83 0 0.0 2.0 0.00 0.00 0.00 32 1017.2
20260510093004 82 331 1.0 5.0 0.00 0.00 0.00 31 1017.1
20260510092504 82 277 1.0 6.0 0.00 0.00 0.00 31 1017.2
20260510092003 82 0 0.0 6.0 0.00 0.00 0.00 31 1017.2
20260510091503 82 42 2.0 4.0 0.00 0.00 0.00 31 1017.3
20260510091003 81 63 2.0 5.0 0.00 0.00 0.00 32 1017.2
20260510090504 81 53 2.0 8.0 0.00 0.00 0.00 32 1017.2
20260510090003 81 50 2.0 8.0 0.00 0.00 0.00 32 1017.2
20260510085503 81 55 2.0 8.0 0.00 0.00 0.00 32 1017.2
20260510085003 81 72 2.0 7.0 0.00 0.00 0.00 31 1017.3
20260510084504 81 181 2.0 7.0 0.00 0.00 0.00 33 1017.2
20260510084003 80 174 4.0 7.0 0.00 0.00 0.00 35 1017.2
20260510083503 80 133 4.0 7.0 0.00 0.00 0.00 35 1017.2
20260510083003 80 38 1.0 8.0 0.00 0.00 0.00 35 1017.3
20260510082504 80 67 1.0 10.0 0.00 0.00 0.00 35 1017.2
20260510082003 80 91 2.0 10.0 0.00 0.00 0.00 35 1017.1
20260510081503 79 46 2.0 4.0 0.00 0.00 0.00 37 1017.1
20260510081003 79 43 1.0 5.0 0.00 0.00 0.00 37 1017.2
20260510080504 79 27 2.0 7.0 0.00 0.00 0.00 38 1017.2
20260510080004 79 295 2.0 7.0 0.00 0.00 0.00 38 1017.2
20260510075503 79 230 1.0 5.0 0.00 0.00 0.00 42 1017.3
20260510075003 78 232 2.0 8.0 0.00 0.00 0.00 43 1017.3
20260510074504 78 266 3.0 8.0 0.00 0.00 0.00 43 1017.4
20260510074003 77 291 2.0 7.0 0.00 0.00 0.00 45 1017.5
20260510073503 76 254 3.0 7.0 0.00 0.00 0.00 46 1017.5
20260510073003 76 229 2.0 6.0 0.00 0.00 0.00 46 1017.5
20260510072504 75 232 2.0 6.0 0.00 0.00 0.00 47 1017.5
20260510072003 74 228 2.0 6.0 0.00 0.00 0.00 49 1017.4
20260510071503 74 232 4.0 7.0 0.00 0.00 0.00 49 1017.5
20260510071003 73 232 2.0 7.0 0.00 0.00 0.00 51 1017.6
20260510070504 73 225 3.0 7.0 0.00 0.00 0.00 52 1017.5
20260510070004 73 225 4.0 6.0 0.00 0.00 0.00 53 1017.4
20260510065503 72 225 2.0 6.0 0.00 0.00 0.00 54 1017.5
20260510065003 72 225 3.0 6.0 0.00 0.00 0.00 55 1017.3
20260510064504 72 225 3.0 8.0 0.00 0.00 0.00 56 1017.4
20260510064004 72 229 3.0 8.0 0.00 0.00 0.00 56 1017.4
20260510063503 72 229 4.0 6.0 0.00 0.00 0.00 56 1017.3
20260510063003 72 230 2.0 6.0 0.00 0.00 0.00 57 1017.5
20260510062503 71 230 2.0 6.0 0.00 0.00 0.00 56 1017.5
20260510062004 71 225 3.0 5.0 0.00 0.00 0.00 55 1017.6
20260510061504 71 225 2.0 4.0 0.00 0.00 0.00 55 1017.4
20260510061003 71 225 2.0 4.0 0.00 0.00 0.00 56 1017.5
20260510060503 70 225 2.0 4.0 0.00 0.00 0.00 56 1017.5
20260510060004 71 225 1.0 4.0 0.00 0.00 0.00 55 1017.5
20260510055503 71 225 1.0 6.0 0.00 0.00 0.00 55 1017.5
20260510055003 70 0 0.0 6.0 0.00 0.00 0.00 56 1017.6
20260510054503 70 225 2.0 5.0 0.00 0.00 0.00 55 1017.6
20260510054004 71 225 2.0 4.0 0.00 0.00 0.00 55 1017.5
20260510053503 71 0 0.0 2.0 0.00 0.00 0.00 55 1017.5
20260510053003 71 0 0.0 2.0 0.00 0.00 0.00 56 1017.5
20260510052503 71 0 0.0 2.0 0.00 0.00 0.00 56 1017.4
20260510052004 71 0 0.0 2.0 0.00 0.00 0.00 56 1017.3
20260510051504 71 0 0.0 2.0 0.00 0.00 0.00 56 1017.2
20260510051003 71 0 0.0 2.0 0.00 0.00 0.00 57 1017.3
20260510050503 71 0 0.0 2.0 0.00 0.00 0.00 57 1017.3
20260510050004 71 0 0.0 2.0 0.00 0.00 0.00 58 1017.2
20260510045504 71 225 1.0 2.0 0.00 0.00 0.00 59 1017.2
20260510045003 71 0 0.0 2.0 0.00 0.00 0.00 60 1017.2
20260510044503 70 0 0.0 2.0 0.00 0.00 0.00 62 1017.3
20260510044003 70 0 0.0 2.0 0.00 0.00 0.00 65 1017.3
20260510043503 68 0 0.0 2.0 0.00 0.00 0.00 67 1017.3
20260510043004 66 0 0.0 2.0 0.00 0.00 0.00 67 1017.3
20260510042503 65 0 0.0 2.0 0.00 0.00 0.00 66 1017.4
20260510042003 65 225 1.0 2.0 0.00 0.00 0.00 67 1017.3
20260510041503 64 0 0.0 2.0 0.00 0.00 0.00 67 1017.3
20260510041004 64 0 0.0 3.0 0.00 0.00 0.00 67 1017.4
20260510040503 64 0 0.0 3.0 0.00 0.00 0.00 68 1017.2
20260510040003 64 0 0.0 2.0 0.00 0.00 0.00 68 1017.2
20260510035503 64 0 0.0 2.0 0.00 0.00 0.00 69 1017.1
20260510035004 64 0 0.0 3.0 0.00 0.00 0.00 69 1017.0
20260510034503 63 0 0.0 3.0 0.00 0.00 0.00 69 1016.9
20260510034003 63 0 0.0 3.0 0.00 0.00 0.00 69 1016.7
20260510033503 63 0 0.0 3.0 0.00 0.00 0.00 69 1016.7
20260510033003 63 225 1.0 2.0 0.00 0.00 0.00 69 1016.7
20260510032504 63 0 0.0 2.0 0.00 0.00 0.00 69 1016.6
20260510032003 63 0 0.0 2.0 0.00 0.00 0.00 69 1016.6
20260510031503 63 0 0.0 2.0 0.00 0.00 0.00 70 1016.7
20260510031003 63 0 0.0 3.0 0.00 0.00 0.00 70 1016.7
20260510030504 63 225 1.0 4.0 0.00 0.00 0.00 70 1016.7
20260510030004 63 231 1.0 4.0 0.00 0.00 0.00 70 1016.7
20260510025503 63 21 2.0 3.0 0.00 0.00 0.00 70 1016.7
20260510025003 63 0 0.0 2.0 0.00 0.00 0.00 70 1016.6
20260510024504 63 0 0.0 3.0 0.00 0.00 0.00 70 1016.6
20260510024004 63 38 1.0 3.0 0.00 0.00 0.00 70 1016.6
20260510023503 63 0 0.0 2.0 0.00 0.00 0.00 70 1016.7
20260510023003 64 0 0.0 3.0 0.00 0.00 0.00 70 1016.6
20260510022504 64 38 1.0 4.0 0.00 0.00 0.00 71 1016.5
20260510022004 64 35 2.0 4.0 0.00 0.00 0.00 71 1016.5
20260510021503 64 39 2.0 4.0 0.00 0.00 0.00 71 1016.6
20260510021003 64 0 0.0 4.0 0.00 0.00 0.00 72 1016.5
20260510020503 63 49 2.0 4.0 0.00 0.00 0.00 73 1016.5
20260510020004 63 0 0.0 2.0 0.00 0.00 0.00 73 1016.7
20260510015504 63 0 0.0 4.0 0.00 0.00 0.00 73 1016.7
20260510015003 63 0 0.0 4.0 0.00 0.00 0.00 74 1016.6
20260510014503 63 291 1.0 4.0 0.00 0.00 0.00 74 1016.5
20260510014004 63 0 0.0 4.0 0.00 0.00 0.00 74 1016.4
20260510013503 63 46 1.0 5.0 0.00 0.00 0.00 75 1016.4
20260510013003 63 51 1.0 5.0 0.00 0.00 0.00 75 1016.4
20260510012504 62 0 0.0 5.0 0.00 0.00 0.00 75 1016.4
20260510012004 62 36 2.0 5.0 0.00 0.00 0.00 75 1016.5
20260510011503 62 32 3.0 5.0 0.00 0.00 0.00 76 1016.5
20260510011003 62 21 1.0 5.0 0.00 0.00 0.00 77 1016.6
20260510010503 62 0 0.0 5.0 0.00 0.00 0.00 77 1016.5
20260510010004 62 0 0.0 5.0 0.00 0.00 0.00 78 1016.6
20260510005503 62 0 0.0 3.0 0.00 0.00 0.00 78 1016.6
20260510005003 62 225 1.0 3.0 0.00 0.00 0.00 78 1016.7
20260510004503 62 0 0.0 4.0 0.00 0.00 0.00 79 1016.7
20260510004004 62 225 1.0 4.0 0.00 0.00 0.00 79 1016.8
20260510003504 63 225 2.0 3.0 0.00 0.00 0.00 80 1016.7
20260510003004 63 0 0.0 2.0 0.00 0.00 0.00 80 1016.7
20260510002503 63 0 0.0 2.0 0.00 0.00 0.00 80 1016.7
20260510002004 63 0 0.0 2.0 0.00 0.00 0.00 80 1016.7
20260510001504 63 0 0.0 2.0 0.00 0.00 0.00 81 1016.7
20260510001003 63 0 0.0 2.0 0.00 0.00 0.00 81 1016.8
20260510000503 63 156 1.0 2.0 0.00 0.00 0.00 81 1016.9
20260510000003 63 0 0.0 2.0 0.00 0.00 0.00 81 1016.8
20260509235504 63 225 1.0 2.0 0.00 0.00 0.00 81 1016.8
20260509235003 63 225 1.0 2.0 0.00 0.00 0.00 81 1016.8
20260509234503 63 0 0.0 2.0 0.00 0.00 0.00 81 1016.7
20260509234003 63 0 0.0 3.0 0.00 0.00 0.00 81 1016.8
20260509233504 64 0 0.0 3.0 0.00 0.00 0.00 81 1016.8
20260509233004 64 0 0.0 4.0 0.00 0.00 0.00 80 1016.8
20260509232503 64 225 2.0 4.0 0.00 0.00 0.00 80 1016.9
20260509232003 64 0 0.0 4.0 0.00 0.00 0.00 80 1017.0
20260509231504 64 0 0.0 2.0 0.00 0.00 0.00 80 1017.1
20260509231003 64 0 0.0 2.0 0.00 0.00 0.00 80 1017.1
20260509230503 65 0 0.0 2.0 0.00 0.00 0.00 80 1017.1
20260509230003 65 0 0.0 2.0 0.00 0.00 0.00 80 1017.1
20260509225504 65 31 2.0 2.0 0.00 0.00 0.00 80 1017.0
20260509225003 65 0 0.0 2.0 0.00 0.00 0.00 80 1017.0
20260509224503 65 0 0.0 2.0 0.00 0.00 0.00 80 1017.0
20260509224003 65 0 0.0 1.0 0.00 0.00 0.00 79 1017.0
20260509223503 65 0 0.0 1.0 0.00 0.00 0.00 79 1016.9
20260509223004 65 0 0.0 1.0 0.00 0.00 0.00 79 1017.1
20260509222503 65 0 0.0 2.0 0.00 0.00 0.00 79 1017.0
20260509222003 65 0 0.0 2.0 0.00 0.00 0.00 79 1017.0
20260509221503 65 0 0.0 2.0 0.00 0.00 0.00 79 1017.2
20260509221004 65 0 0.0 2.0 0.00 0.00 0.00 80 1017.2
20260509220503 65 0 0.0 2.0 0.00 0.00 0.00 80 1017.1
20260509220003 65 0 0.0 3.0 0.00 0.00 0.00 80 1017.0
20260509215504 65 32 1.0 3.0 0.00 0.00 0.00 80 1017.1
20260509215004 65 0 0.0 2.0 0.00 0.00 0.00 80 1017.2
20260509214504 65 0 0.0 2.0 0.00 0.00 0.00 80 1017.2
20260509214003 66 0 0.0 2.0 0.00 0.00 0.00 80 1017.3
20260509213503 66 270 1.0 2.0 0.00 0.00 0.00 80 1017.3
20260509213004 66 0 0.0 1.0 0.00 0.00 0.00 80 1017.3
20260509212504 66 0 0.0 2.0 0.00 0.00 0.00 80 1017.3
20260509212003 66 0 0.0 2.0 0.00 0.00 0.00 80 1017.4
20260509211503 66 254 1.0 4.0 0.00 0.00 0.00 80 1017.4
20260509211003 66 0 0.0 4.0 0.00 0.00 0.00 80 1017.3
20260509210503 66 247 2.0 4.0 0.00 0.00 0.00 79 1017.3
20260509210004 66 244 2.0 4.0 0.00 0.00 0.00 79 1017.2
20260509205503 66 261 1.0 4.0 0.00 0.00 0.00 78 1017.2
20260509205003 66 260 1.0 3.0 0.00 0.00 0.00 77 1017.1
20260509204504 66 0 0.0 2.0 0.00 0.00 0.00 77 1017.0
20260509204004 66 0 0.0 2.0 0.00 0.00 0.00 76 1016.9
20260509203503 66 0 0.0 2.0 0.00 0.00 0.00 75 1017.0
20260509203003 66 0 0.0 0.0 0.00 0.00 0.00 75 1017.0
20260509202504 66 0 0.0 0.0 0.00 0.00 0.00 75 1017.0
20260509202003 66 0 0.0 0.0 0.00 0.00 0.00 74 1016.8
20260509201503 66 0 0.0 2.0 0.00 0.00 0.00 74 1016.8
20260509201003 66 0 0.0 2.0 0.00 0.00 0.00 74 1016.8
20260509200504 66 0 0.0 2.0 0.00 0.00 0.00 74 1016.9
20260509200004 66 225 1.0 2.0 0.00 0.00 0.00 74 1016.7
20260509195503 67 0 0.0 2.0 0.00 0.00 0.00 74 1016.7
20260509195003 67 0 0.0 2.0 0.00 0.00 0.00 74 1016.7
20260509194504 67 0 0.0 2.0 0.00 0.00 0.00 73 1016.7
20260509194003 67 0 0.0 1.0 0.00 0.00 0.00 73 1016.7
20260509193503 67 0 0.0 2.0 0.00 0.00 0.00 73 1016.7
20260509193003 67 0 0.0 2.0 0.00 0.00 0.00 73 1016.8
20260509192504 67 0 0.0 2.0 0.00 0.00 0.00 73 1016.8
20260509192003 67 0 0.0 1.0 0.00 0.00 0.00 73 1016.7
20260509191503 67 0 0.0 1.0 0.00 0.00 0.00 73 1016.8
20260509191004 67 0 0.0 1.0 0.00 0.00 0.00 72 1016.7
20260509190504 67 0 0.0 1.0 0.00 0.00 0.00 72 1016.7
20260509190004 68 0 0.0 2.0 0.00 0.00 0.00 71 1016.6
20260509185503 68 0 0.0 2.0 0.00 0.00 0.00 71 1016.7
20260509185004 68 0 0.0 2.0 0.00 0.00 0.00 70 1016.8
20260509184504 68 0 0.0 3.0 0.00 0.00 0.00 70 1016.7
20260509184003 68 0 0.0 3.0 0.00 0.00 0.00 69 1016.6
20260509183503 68 0 0.0 3.0 0.00 0.00 0.00 69 1016.6
20260509183004 68 225 1.0 2.0 0.00 0.00 0.00 69 1016.6
20260509182503 69 0 0.0 2.0 0.00 0.00 0.00 69 1016.5
20260509182003 69 225 1.0 2.0 0.00 0.00 0.00 68 1016.5
20260509181503 69 0 0.0 2.0 0.00 0.00 0.00 68 1016.5
20260509181004 69 225 2.0 3.0 0.00 0.00 0.00 68 1016.4
20260509180503 69 0 0.0 3.0 0.00 0.00 0.00 68 1016.2
20260509180003 69 241 1.0 2.0 0.00 0.00 0.00 67 1016.1
20260509175503 69 0 0.0 2.0 0.00 0.00 0.00 67 1016.0
20260509175004 69 265 1.0 2.0 0.00 0.00 0.00 67 1016.0
20260509174503 70 281 1.0 2.0 0.00 0.00 0.00 66 1015.9
20260509174003 70 0 0.0 2.0 0.00 0.00 0.00 66 1015.8
20260509173503 70 230 1.0 2.0 0.00 0.00 0.00 66 1015.8
20260509173004 70 0 0.0 4.0 0.00 0.00 0.00 66 1015.7
20260509172503 70 0 0.0 4.0 0.00 0.00 0.00 66 1015.7
20260509172003 71 135 1.0 4.0 0.00 0.00 0.00 65 1015.7
20260509171503 71 132 1.0 4.0 0.00 0.00 0.00 65 1015.7
20260509171004 71 131 1.0 4.0 0.00 0.00 0.00 65 1015.7
20260509170504 71 133 1.0 4.0 0.00 0.00 0.00 64 1015.7
20260509170003 72 0 0.0 4.0 0.00 0.00 0.00 64 1015.6
20260509165503 72 132 1.0 4.0 0.00 0.00 0.00 63 1015.7
20260509165004 72 176 1.0 4.0 0.00 0.00 0.00 62 1015.7
20260509164503 72 0 0.0 4.0 0.00 0.00 0.00 62 1015.7
20260509164003 72 225 1.0 4.0 0.00 0.00 0.00 62 1015.7
20260509163503 73 225 1.0 4.0 0.00 0.00 0.00 62 1015.4
20260509163004 73 0 0.0 4.0 0.00 0.00 0.00 62 1015.5
20260509162503 73 225 1.0 4.0 0.00 0.00 0.00 62 1015.4
20260509162003 73 230 2.0 4.0 0.00 0.00 0.00 62 1015.4
20260509161503 73 237 1.0 6.0 0.00 0.00 0.00 61 1015.5
20260509161004 73 240 2.0 6.0 0.00 0.00 0.00 61 1015.5
20260509160503 73 237 2.0 5.0 0.00 0.00 0.00 61 1015.5
20260509160003 73 231 3.0 5.0 0.00 0.00 0.00 60 1015.5
20260509155504 74 225 3.0 6.0 0.00 0.00 0.00 60 1015.5
20260509155004 74 237 2.0 6.0 0.00 0.00 0.00 60 1015.4
20260509154503 74 241 2.0 7.0 0.00 0.00 0.00 60 1015.3
20260509154003 73 229 2.0 7.0 0.00 0.00 0.00 60 1015.3
20260509153504 74 225 3.0 8.0 0.00 0.00 0.00 60 1015.3
20260509153004 73 234 2.0 8.0 0.00 0.00 0.00 60 1015.4
20260509152503 74 255 3.0 8.0 0.00 0.01 0.00 59 1015.4
20260509152003 76 253 3.0 8.0 0.00 0.01 0.00 52 1015.2
20260509151504 74 243 1.0 8.0 0.00 0.01 0.00 56 1015.4
20260509151004 75 261 2.0 6.0 0.00 0.02 0.00 55 1015.4
20260509150503 76 251 3.0 5.0 0.00 0.02 0.00 52 1015.4
20260509150004 76 225 1.0 5.0 0.00 0.02 0.00 51 1015.2
20260509145503 76 225 1.0 6.0 0.00 0.02 0.00 47 1015.2
20260509145003 76 225 1.0 6.0 0.00 0.02 0.00 47 1015.2
20260509144504 76 225 3.0 6.0 0.00 0.02 0.00 47 1015.2
20260509144003 76 225 2.0 7.0 0.00 0.02 0.00 46 1015.2
20260509143503 76 231 2.0 7.0 0.00 0.02 0.00 46 1015.2
20260509143004 76 233 4.0 7.0 0.00 0.02 0.00 46 1015.2
20260509142504 77 227 2.0 7.0 0.00 0.02 0.00 46 1015.2
20260509142003 77 231 1.0 5.0 0.00 0.02 0.00 46 1015.1
20260509141503 77 0 0.0 5.0 0.00 0.02 0.00 46 1015.2
20260509141004 77 230 2.0 6.0 0.00 0.02 0.00 46 1015.2
20260509140503 77 241 1.0 6.0 0.00 0.02 0.00 46 1015.2
20260509140005 77 0 0.0 7.0 0.00 0.02 0.00 47 1015.3
20260509135503 77 236 1.0 7.0 0.00 0.02 0.00 47 1015.2
20260509135003 77 0 0.0 8.0 0.00 0.02 0.00 47 1015.3
20260509134503 77 232 2.0 8.0 0.00 0.02 0.00 46 1015.2
20260509134004 78 265 1.0 5.0 0.00 0.02 0.00 47 1015.3
20260509133503 77 237 1.0 6.0 0.00 0.02 0.00 47 1015.3
20260509133004 78 219 2.0 6.0 0.00 0.02 0.00 46 1015.3
20260509132503 78 0 0.0 4.0 0.00 0.02 0.00 47 1015.2
20260509132004 78 0 0.0 4.0 0.00 0.02 0.00 46 1015.3
20260509131503 79 129 1.0 7.0 0.00 0.02 0.00 45 1015.3
20260509131003 79 243 2.0 7.0 0.00 0.02 0.00 45 1015.4
20260509130504 78 263 2.0 5.0 0.00 0.02 0.00 46 1015.4
20260509130004 78 254 2.0 5.0 0.00 0.02 0.00 46 1015.5
20260509125503 78 222 1.0 5.0 0.00 0.02 0.00 46 1015.4
20260509125003 78 227 2.0 8.0 0.00 0.02 0.00 45 1015.4
20260509124504 79 246 2.0 10.0 0.00 0.02 0.00 44 1015.4
20260509124004 81 257 2.0 10.0 0.00 0.02 0.00 41 1015.4
20260509123503 81 237 2.0 5.0 0.00 0.02 0.00 39 1015.5
20260509123003 82 235 2.0 8.0 0.00 0.02 0.00 39 1015.4
20260509122503 83 224 2.0 8.0 0.00 0.02 0.00 37 1015.4
20260509122004 82 177 2.0 7.0 0.00 0.02 0.00 36 1015.4
20260509121504 82 232 1.0 7.0 0.00 0.02 0.00 39 1015.3
20260509121003 83 0 0.0 6.0 0.00 0.02 0.00 37 1015.4
20260509120503 84 227 2.0 6.0 0.00 0.02 0.00 36 1015.4